Вернуться в каталог

SNUGLITE 2

SNUGLITE-II

АктивенЛюбительское радиоSSO
NORAD 52899·PAYLOAD·🇰🇷 South Korea

Запущен Jun 21, 2022 с Naro Space Center

Loading…

Ближайшие Пролёты (ближайшие 24 часа)

TLE

СвежийSource: AMSAT

Эпоха: Sep 14, 2026, 03:06 UTC

1 52899U 22065F   26257.12967346  .00000711  00000-0  14331-3 0  9992
2 52899  98.2334  41.8751 0008691 103.2455 256.9717 14.64484178224017

Отслеживайте SNUGLITE 2 в реальном времени с AllMySat

Download on the App Store